Theta_e
286 286 285 285 284 284 284 284 283 283 282 282 282 282 281 281 281 280 280 280 279 279 278 278 278 277 277 277 277 277 277 277 277 277 276 276 276 275 275 275 275 275 275 275 275 275 274 274 274 274 274 273 273 273 274 274 275 275 275 275 274 275 275 274 272 272 274 277 277 276 277 277 276 277 276 277 277 278 280 279 279 280 281 281 281
285 286 285 285 284 284 283 283 282 282 282 281 282 281 281 281 280 279 279 279 279 278 278 278 277 277 277 277 277 277 277 276 276 276 276 275 275 275 275 274 274 273 273 273 273 274 273 273 273 272 272 272 272 272 272 272 272 272 272 272 272 272 274 272 272 271 270 273 273 275 274 276 274 276 275 274 275 277 276 277 277 278 278 279 280
286 285 284 284 283 283 282 282 281 281 281 281 281 280 280 280 280 279 279 278 278 278 278 277 277 277 277 276 276 276 276 276 275 275 275 274 274 273 274 273 272 272 272 272 272 272 272 272 271 271 271 270 271 271 271 271 271 271 270 271 270 271 272 272 271 269 269 270 272 271 272 273 273 273 274 274 275 275 274 275 276 278 280 279 278
285 284 283 283 282 282 281 281 280 280 280 280 280 279 279 279 279 279 278 278 278 277 278 277 277 277 276 276 276 275 275 275 275 274 274 274 273 273 273 272 272 272 271 271 271 271 271 270 270 270 269 269 269 270 271 271 270 270 270 270 270 270 270 271 271 269 269 268 269 270 271 271 271 273 273 274 274 274 275 275 277 277 277 277 277
284 283 283 282 281 281 281 281 280 280 280 280 279 279 278 278 278 278 278 277 277 277 277 277 277 276 276 275 275 275 275 274 274 273 273 273 273 273 272 272 272 272 271 271 272 271 270 270 270 269 269 268 269 269 269 269 269 269 269 270 270 270 270 270 270 270 269 268 268 270 271 271 272 272 272 272 272 274 275 275 276 276 277 277 278
284 283 283 282 281 281 281 280 280 280 280 279 279 278 278 278 278 278 278 277 277 277 276 276 276 276 275 275 275 274 274 273 273 273 272 272 272 272 272 272 271 271 271 271 270 270 270 270 270 270 269 269 269 269 269 268 269 269 269 269 270 270 270 270 270 270 269 269 269 269 270 270 270 271 272 272 272 272 273 274 275 276 276 275 276
283 283 282 282 282 281 281 281 280 280 280 279 279 278 278 278 278 277 277 277 276 276 276 275 275 275 274 274 274 273 273 273 272 272 272 272 272 271 271 271 271 270 270 270 270 270 270 270 270 270 270 270 269 269 269 269 269 269 270 269 270 270 270 270 270 269 269 269 269 270 270 271 271 269 272 273 272 272 271 271 272 274 275 275 275
283 283 282 282 282 281 281 281 280 280 279 278 278 278 278 278 277 277 277 276 276 275 275 274 274 274 273 273 273 272 272 271 271 271 271 271 271 271 271 270 270 270 270 270 270 270 270 271 271 271 271 271 270 270 270 270 270 270 270 270 270 270 269 269 269 269 269 269 268 268 269 269 270 271 272 272 270 271 273 272 270 271 273 275 276
283 283 282 282 282 281 281 280 280 279 278 278 278 278 277 277 277 276 276 275 275 275 274 273 273 272 272 272 271 271 271 271 271 271 270 270 271 270 270 270 270 270 270 270 270 270 271 271 271 271 272 273 275 275 274 274 271 269 270 271 271 270 270 269 269 269 269 269 268 269 269 269 269 270 270 270 269 270 271 272 271 272 273 273 275
283 282 282 282 281 280 280 279 279 278 278 277 277 277 277 276 275 275 275 274 273 273 272 272 272 271 271 270 270 271 271 271 273 275 274 271 270 270 270 270 270 270 270 270 270 271 271 272 272 274 275 275 276 276 277 278 278 277 275 274 273 270 269 268 268 269 268 268 268 268 268 268 269 270 270 271 272 272 272 272 271 272 273 273 274
283 282 282 282 281 280 279 279 278 278 278 277 277 276 276 275 274 274 272 271 271 272 272 271 271 271 271 270 270 270 270 271 275 276 277 276 271 270 270 270 270 270 270 270 270 271 272 272 273 274 274 275 274 276 277 277 278 278 278 278 278 275 273 273 272 272 268 267 268 269 269 269 270 271 271 272 272 272 272 272 272 272 271 271 270
282 282 282 281 280 280 279 278 277 277 277 277 276 275 274 273 273 272 271 271 271 271 271 271 271 271 271 271 270 270 270 273 276 277 278 278 275 271 271 270 271 271 271 271 272 272 272 272 272 273 272 272 273 273 274 276 277 278 278 278 279 279 280 276 274 273 273 272 271 271 271 271 272 272 272 273 272 273 273 273 272 272 272 272 273
282 281 281 280 279 279 278 277 277 276 276 276 275 273 273 273 272 271 271 272 271 271 271 270 270 270 270 270 270 270 270 275 277 278 278 278 279 275 272 272 272 272 272 272 272 272 272 272 272 272 272 274 274 273 273 273 276 277 278 278 279 279 279 280 280 276 275 273 272 272 273 273 272 272 273 273 274 273 273 273 273 273 273 273 273
281 280 280 279 279 278 277 277 277 276 275 274 273 272 272 272 271 271 271 270 270 270 270 270 270 270 270 270 270 270 270 275 277 278 278 278 279 278 275 274 273 273 273 273 273 272 272 271 271 271 272 272 272 273 273 273 273 273 273 273 273 275 278 279 279 279 278 275 274 272 273 274 272 273 274 275 273 272 272 272 273 273 273 273 275
280 280 279 279 278 278 277 276 276 275 274 273 272 272 272 271 270 270 269 269 269 269 269 269 269 270 270 270 270 270 270 275 277 278 278 278 278 278 275 274 274 274 273 272 272 272 272 272 272 271 272 272 273 274 273 273 274 274 274 274 275 275 275 275 275 275 275 275 275 274 274 274 274 274 274 275 274 274 273 273 273 273 274 275 274
280 279 279 278 278 277 277 276 275 274 273 272 271 272 271 270 269 269 269 269 269 269 269 269 269 269 270 270 270 269 270 275 276 277 277 278 278 276 275 274 272 272 271 272 272 272 272 272 272 272 272 272 275 277 277 276 275 274 273 274 274 275 275 277 279 279 277 276 276 275 275 275 277 276 276 275 275 275 275 275 275 274 273 271 271
279 279 278 278 277 277 277 275 274 272 272 271 271 271 270 269 269 269 268 269 268 268 268 268 269 269 269 269 269 268 269 274 276 276 276 277 277 274 273 272 272 271 272 272 272 272 272 272 272 272 273 273 276 278 278 278 274 273 273 273 273 274 274 276 278 279 279 280 280 280 281 281 281 282 282 282 280 279 276 274 273 274 272 271 272
279 278 278 278 277 276 276 275 273 272 271 271 270 270 270 269 269 269 268 267 267 267 267 267 268 269 269 268 269 268 268 272 275 275 276 276 276 273 272 272 271 271 271 272 273 273 273 275 275 274 274 273 276 277 278 276 273 273 273 273 273 272 273 274 274 274 277 278 278 278 279 279 280 281 281 281 281 280 275 272 274 275 273 273 271
278 278 278 277 276 276 275 274 273 271 271 271 270 269 269 268 268 268 268 267 267 267 267 267 267 268 268 268 270 268 267 270 274 274 275 276 275 273 272 271 271 271 271 271 272 273 273 275 276 275 274 275 277 277 277 276 275 274 273 272 271 271 271 271 271 271 272 273 273 274 274 275 274 274 274 278 279 279 277 276 276 274 272 273 273
279 278 277 276 275 275 274 273 272 271 271 270 270 269 269 267 267 267 267 267 267 266 266 266 266 266 267 267 269 268 267 267 270 274 275 276 276 273 272 271 270 270 271 271 271 273 273 273 273 275 275 276 276 277 277 278 275 274 273 271 269 268 270 271 273 273 272 271 270 270 270 270 271 272 272 273 274 275 275 275 275 275 273 273 273
277 276 275 274 274 274 273 273 271 271 271 270 269 268 268 267 267 266 266 266 266 266 265 265 265 266 267 267 267 268 268 268 269 273 274 275 276 275 272 271 271 271 271 271 272 272 271 271 271 273 274 275 276 277 277 277 277 274 272 270 270 271 275 272 271 272 268 268 268 268 268 269 270 270 271 273 274 275 276 276 276 276 275 274 273
275 274 274 274 273 272 272 272 271 270 270 269 268 267 267 267 266 266 266 266 265 265 265 265 265 265 266 266 266 267 269 270 268 272 274 275 275 276 272 272 273 272 272 272 272 271 271 271 270 272 274 275 276 276 276 276 276 272 270 274 276 276 273 271 268 266 266 266 266 267 267 268 268 269 269 270 272 275 277 277 277 277 277 276 275
274 273 272 272 271 271 270 270 270 269 268 268 267 266 266 265 265 265 265 265 265 264 264 265 265 265 265 266 267 267 268 270 271 270 273 274 275 275 275 274 276 274 272 271 271 271 271 270 271 273 274 275 275 275 275 275 273 271 274 275 275 275 272 267 266 265 265 265 266 266 267 267 267 268 268 269 271 272 273 274 276 277 278 278 278
273 272 271 271 270 270 269 269 268 268 267 267 266 265 265 264 264 264 265 264 264 264 264 264 265 265 265 265 266 267 268 269 272 272 271 273 274 275 275 276 276 274 273 272 272 271 270 270 271 274 275 274 274 274 274 272 270 273 273 274 273 272 266 265 264 264 265 265 265 266 266 267 267 267 268 269 270 271 271 273 273 274 275 277 278
272 271 270 270 269 269 268 268 267 266 266 266 265 265 264 264 264 264 265 265 264 264 264 265 265 265 265 265 266 267 268 268 268 271 272 273 274 275 275 275 275 275 272 271 271 270 272 274 274 273 272 272 272 272 270 269 271 272 272 272 270 265 264 264 264 264 264 264 265 265 266 267 267 268 269 269 270 271 271 271 273 273 274 275 275
271 270 270 269 269 268 267 266 266 266 266 266 266 265 264 264 264 264 265 264 264 264 264 265 265 265 265 266 266 267 267 267 267 268 271 272 273 274 274 274 273 273 273 272 272 273 273 272 271 271 270 269 267 266 266 266 270 270 270 269 265 264 263 264 264 264 264 264 264 264 265 267 267 268 269 270 269 269 270 270 270 271 272 272 273
270 270 269 269 268 267 267 266 265 265 265 265 265 265 265 265 265 264 264 264 265 265 265 265 265 265 265 266 266 266 266 267 267 268 268 269 270 271 272 272 272 272 271 270 270 267 267 267 267 269 268 269 268 268 267 267 264 264 264 264 263 263 264 264 264 264 264 264 264 265 266 267 268 268 267 268 267 269 270 269 269 269 270 271 271
271 270 269 268 266 267 266 265 265 265 265 265 264 264 264 265 265 265 265 265 265 265 265 265 265 266 265 266 266 265 266 266 267 267 268 269 269 271 271 271 271 269 268 269 267 265 262 265 265 262 262 261 262 260 261 261 262 262 262 263 263 263 265 268 268 265 265 265 265 265 265 266 265 266 267 267 268 269 270 269 268 268 269 269 268
270 269 268 267 266 266 266 265 265 265 265 264 265 265 264 264 265 266 268 268 268 267 266 266 267 267 267 266 265 265 265 265 266 270 269 271 271 271 271 270 269 269 270 271 264 261 259 257 257 258 258 258 258 259 259 259 260 261 261 261 262 262 262 262 262 263 264 264 264 264 264 265 265 266 267 267 267 268 269 268 268 268 268 268 267
269 268 267 266 266 265 265 265 265 265 264 264 263 264 267 270 268 266 266 270 271 272 271 268 268 267 267 267 267 265 265 266 272 274 274 274 274 274 273 272 272 271 271 270 264 255 255 255 256 255 257 257 257 258 258 259 259 259 260 263 262 261 262 262 263 263 264 264 264 264 264 265 265 266 266 266 267 267 268 268 267 267 266 266 266
269 268 267 266 265 265 265 265 265 265 264 264 264 264 265 268 271 271 271 272 273 273 273 273 273 272 268 266 269 271 272 273 274 275 274 274 274 273 273 272 272 271 270 264 257 254 255 255 255 255 255 256 257 257 258 258 259 259 259 260 261 261 262 262 263 263 264 264 264 264 264 264 265 266 266 266 266 266 266 267 267 267 266 266 266
268 268 267 266 265 265 265 264 264 264 264 264 264 265 265 265 267 272 273 274 275 275 275 274 274 273 272 271 270 270 273 274 275 274 274 273 273 273 272 272 271 270 268 266 255 255 254 254 254 254 255 256 257 257 258 258 258 259 259 259 260 261 261 261 263 263 263 263 263 264 264 265 265 266 266 266 266 265 265 265 265 265 265 266 266
269 268 266 266 265 265 264 264 264 264 264 264 264 265 265 265 265 267 271 275 276 275 275 275 274 274 274 273 273 272 273 274 274 274 273 273 272 272 272 271 270 269 267 257 253 255 254 253 253 253 254 255 256 257 257 258 258 259 259 259 259 260 261 262 264 263 263 263 264 264 264 265 266 266 266 266 265 264 265 264 265 265 265 264 265
270 268 266 266 265 264 264 264 264 264 265 265 265 266 266 267 267 268 268 269 271 273 275 275 275 274 274 274 274 274 274 274 274 273 273 272 271 271 270 268 269 268 263 255 254 253 253 253 253 253 254 255 256 256 257 258 258 259 259 259 260 261 262 263 262 262 263 263 264 264 265 265 266 265 265 265 265 265 264 264 264 264 264 264 264
270 268 266 266 265 265 265 265 265 265 265 265 266 266 266 267 268 268 268 268 268 267 269 271 274 275 272 273 274 274 274 274 273 272 272 271 270 269 267 259 257 255 255 254 255 253 252 253 252 253 254 254 255 256 257 258 258 258 259 259 260 261 261 261 261 262 263 263 264 264 264 265 266 266 265 265 264 264 264 264 264 264 264 264 264
270 269 267 266 266 265 265 265 265 265 265 265 266 267 267 267 267 268 268 268 268 267 268 269 271 274 274 274 275 275 274 273 272 272 270 270 269 267 257 254 253 253 253 252 252 252 253 252 253 253 254 255 256 257 257 258 258 258 259 259 260 260 260 260 261 263 264 264 263 264 265 266 266 266 265 265 265 264 264 264 264 264 264 264 264
270 269 267 267 266 266 266 265 265 266 267 266 266 266 267 267 267 267 267 267 266 266 265 263 267 268 269 266 272 273 274 272 271 270 268 267 266 258 254 254 251 251 251 250 251 251 250 251 252 252 254 254 255 256 257 258 258 258 260 260 259 259 259 261 263 264 263 263 263 264 265 266 266 266 265 264 264 264 264 264 264 264 265 265 265
270 269 268 267 266 266 266 265 265 266 266 266 266 266 266 266 266 266 265 264 264 263 263 264 266 264 263 263 269 268 268 270 269 265 264 261 255 253 253 252 251 250 250 249 249 249 249 250 250 251 253 254 255 256 257 257 258 258 259 259 259 259 264 263 262 262 263 263 263 264 266 266 266 266 265 264 264 264 264 264 264 264 264 264 264
270 270 269 268 268 266 266 265 265 265 265 265 265 265 264 264 264 264 264 263 263 262 262 262 262 262 261 260 262 264 262 257 255 252 252 252 252 251 250 250 250 249 249 248 249 250 249 250 251 251 252 253 254 255 257 257 258 258 258 259 259 259 260 260 261 262 263 263 264 265 266 266 266 266 265 265 264 264 264 264 264 264 263 263 263
268 268 268 268 267 266 265 265 265 265 264 264 264 264 263 263 263 263 262 262 261 261 261 260 259 259 259 259 259 258 257 256 254 253 252 252 251 249 249 250 249 248 248 247 247 247 248 249 250 250 251 252 254 255 256 257 257 258 258 259 259 259 260 261 261 262 263 264 264 265 267 266 266 265 265 265 265 265 265 264 264 264 264 264 264
268 267 266 268 266 266 264 264 264 264 264 263 263 263 263 262 262 262 262 261 260 260 259 259 258 258 258 260 264 261 256 255 253 253 252 252 250 248 248 248 248 247 247 248 248 247 248 248 249 250 251 252 253 254 255 256 257 257 258 259 259 260 260 261 262 263 264 264 265 266 267 267 266 265 264 264 267 266 265 265 264 264 264 264 264
267 266 266 266 265 264 263 263 263 262 263 262 262 262 261 261 261 261 260 259 259 258 258 257 257 257 261 267 266 264 255 253 252 252 251 250 249 248 249 247 246 245 246 246 247 247 248 248 249 250 250 251 252 253 254 255 256 257 258 258 259 259 260 261 262 263 263 264 265 267 267 266 266 265 265 267 264 264 264 264 264 264 264 264 264
266 265 265 264 264 263 263 262 262 262 262 262 262 261 260 261 260 260 259 258 258 257 257 256 256 254 260 267 265 262 253 252 252 251 250 248 247 248 247 246 245 245 245 246 247 247 247 248 248 249 250 251 252 252 253 254 255 256 257 258 259 259 260 261 262 263 264 265 266 267 267 266 265 264 264 264 264 264 264 264 264 264 264 263 263
265 264 264 263 263 263 262 262 261 262 262 261 260 259 259 259 259 259 258 257 257 256 256 256 255 254 255 259 257 253 251 251 249 248 248 248 247 247 245 244 245 245 245 246 246 245 246 247 248 249 250 251 252 252 253 254 254 255 257 258 259 260 261 262 262 263 264 266 267 267 266 265 265 264 264 264 264 264 264 264 264 263 263 263 263
264 263 262 262 262 262 261 261 261 260 259 258 258 258 258 258 258 257 257 256 256 256 256 255 255 254 253 252 252 251 250 250 249 249 248 247 246 245 244 244 244 245 245 246 246 245 245 247 247 248 249 251 251 252 253 254 255 255 256 257 258 259 261 262 263 264 266 267 267 267 266 265 264 264 264 264 264 264 263 263 263 264 263 263 263
263 262 262 261 261 260 260 260 258 258 258 258 257 257 257 257 257 256 256 255 255 255 254 254 253 253 252 251 250 250 249 249 248 247 247 246 245 245 244 244 245 244 244 245 246 245 246 246 247 248 249 250 251 252 253 254 255 256 256 258 259 261 262 264 265 266 267 268 268 267 266 265 264 264 264 264 264 264 263 264 263 263 263 263 263
262 262 261 260 260 259 258 258 258 258 258 257 257 256 255 255 255 255 254 254 254 253 253 252 252 251 251 251 250 250 249 249 248 247 245 244 244 244 244 244 244 245 245 246 245 246 246 247 247 248 249 250 250 251 252 253 254 255 257 258 260 262 263 265 265 267 268 269 268 267 266 265 264 264 264 264 264 264 263 263 263 263 263 263 263
261 261 260 259 259 258 258 258 257 256 257 256 256 255 255 254 254 254 253 253 253 252 252 252 252 251 250 250 250 249 249 248 247 247 245 245 244 244 244 243 245 245 245 245 244 245 246 246 247 247 248 249 250 251 252 253 254 255 257 258 261 263 264 265 266 268 269 269 269 267 266 265 264 264 264 263 263 263 263 263 263 263 263 263 263
260 259 258 258 258 258 257 257 257 256 255 255 254 254 254 254 253 253 253 253 252 252 252 251 251 251 250 250 249 248 248 247 246 245 245 245 244 244 245 244 246 245 244 245 245 245 246 246 247 248 248 249 250 251 252 253 254 255 256 258 261 263 265 266 268 269 269 269 269 267 266 265 264 264 264 263 263 263 263 263 263 263 263 263 263
258 258 258 258 257 257 257 257 256 256 255 254 254 253 253 253 253 253 253 253 252 252 252 251 251 250 250 249 249 248 247 246 246 245 245 245 245 245 245 245 244 244 244 244 246 246 246 245 246 247 248 249 250 251 252 253 254 255 256 259 262 264 266 268 269 269 269 269 268 267 266 265 264 264 263 263 263 263 263 263 263 263 263 262 262
258 258 257 257 257 256 256 255 255 255 255 254 254 253 253 253 253 253 253 253 252 252 252 251 251 249 249 249 248 248 247 245 245 245 245 245 245 244 245 245 245 243 244 245 246 246 246 246 247 248 248 250 250 251 252 253 254 255 258 261 264 266 267 268 269 269 270 269 268 267 265 265 264 263 263 263 263 263 263 263 263 263 262 262 262
Wind_Speed
14 15 12 13 13 14 14 12 12 10 10 12 12 11 10 11 12 11 11 12 12 13 12 12 12 11 10 9 9 8 7 7 6 6 5 4 4 3 3 3 3 4 3 3 2 3 3 3 3 2 3 3 3 4 4 5 5 5 6 6 7 7 8 12 16 22 24 14 12 15 13 14 18 10 13 15 13 10 13 12 13 11 13 10 12
16 17 14 13 14 13 11 9 9 8 10 10 12 11 11 11 11 11 14 12 13 13 13 11 11 11 10 9 9 8 7 7 7 6 6 5 4 4 4 4 4 3 2 3 3 3 2 3 3 2 2 3 3 3 4 5 5 6 6 6 8 8 7 11 15 17 25 23 16 15 13 9 19 12 9 13 14 9 13 14 12 14 15 16 11
14 11 11 12 14 11 9 10 10 9 10 9 10 9 9 8 9 13 12 11 10 12 12 12 12 11 10 10 9 8 8 8 7 7 6 6 5 4 4 4 4 3 3 3 3 2 4 3 3 2 2 4 4 5 4 5 5 6 8 7 8 8 9 10 12 16 21 24 20 20 18 11 11 14 13 13 14 12 14 15 15 11 9 12 13
11 11 11 11 10 10 11 10 10 11 12 10 10 8 7 7 7 9 10 10 12 9 10 11 12 12 11 11 10 9 9 8 7 7 7 6 6 6 5 4 4 3 4 3 3 3 4 4 3 2 2 4 4 5 5 6 6 7 8 8 9 9 9 9 11 14 16 20 21 15 17 17 15 12 10 12 16 15 12 12 12 15 15 12 13
10 11 11 12 11 13 12 12 13 13 13 11 12 10 9 8 7 9 9 10 10 10 9 9 11 12 12 12 11 10 10 9 8 7 6 6 6 6 6 4 4 3 3 3 4 3 3 3 3 2 2 5 5 5 5 8 7 7 9 8 8 9 10 11 12 13 15 18 20 18 15 17 15 15 12 13 13 11 12 14 12 13 13 12 9
12 12 12 13 13 14 14 13 15 15 14 13 13 12 11 11 10 8 9 11 10 10 11 10 10 11 10 11 10 10 9 9 9 8 8 7 6 6 5 4 4 4 3 3 3 3 4 4 4 4 5 6 7 6 6 9 9 9 10 10 11 12 13 14 14 15 17 18 19 21 17 18 21 15 16 14 16 18 18 14 13 11 12 13 13
14 14 14 15 13 14 15 16 14 14 14 12 11 11 12 12 11 11 10 10 11 11 10 10 8 10 10 10 10 10 9 8 8 7 7 6 6 5 5 4 4 3 4 5 5 5 5 6 6 7 7 7 8 8 8 9 9 10 10 12 12 13 15 14 14 15 16 18 20 16 22 16 21 18 16 13 16 15 17 18 18 11 9 12 15
15 16 15 14 15 16 16 13 13 13 11 11 11 12 12 12 12 10 10 11 11 11 12 11 9 8 9 9 8 8 8 7 7 7 6 6 5 5 5 5 5 5 5 6 6 7 7 7 8 8 9 9 9 9 10 10 9 11 11 13 14 14 14 13 14 14 15 18 17 19 16 19 13 19 15 14 14 17 12 11 17 19 14 11 12
14 15 14 15 16 14 11 10 10 11 12 12 12 13 13 12 11 10 10 9 8 9 9 10 10 9 8 8 8 7 8 7 6 7 7 6 6 6 6 6 6 6 6 6 7 7 7 8 9 10 11 15 18 17 16 15 11 11 12 13 14 15 14 12 12 13 15 15 16 15 15 17 15 16 14 18 13 21 17 13 16 15 14 15 13
15 15 15 16 13 11 12 11 11 11 12 13 13 12 12 11 11 10 10 9 9 9 9 9 9 10 10 9 8 7 7 6 9 15 11 7 7 6 5 6 6 7 6 7 7 8 8 9 9 15 17 18 18 20 21 22 23 17 11 8 10 11 11 12 11 11 11 13 13 14 15 18 17 18 15 17 20 18 18 18 18 18 17 19 18
14 15 16 13 12 11 12 12 12 13 13 11 11 12 12 11 11 11 10 10 11 11 11 11 10 9 10 10 10 7 6 6 15 15 15 16 9 7 7 6 7 7 8 8 7 8 8 8 7 10 12 14 14 20 21 22 23 24 26 26 22 18 14 14 14 13 9 12 13 15 16 17 19 16 17 14 15 17 16 17 19 16 18 18 22
15 15 13 11 12 13 12 12 12 12 12 13 13 12 12 12 12 12 12 12 11 10 12 10 9 9 8 8 8 7 7 11 16 16 16 16 14 8 7 6 7 8 8 8 7 6 6 7 8 8 9 10 11 12 16 22 24 25 27 27 27 28 27 20 17 16 15 15 15 15 15 14 19 15 16 13 16 16 19 16 20 18 18 19 18
14 12 12 13 13 13 12 13 13 13 14 13 13 13 15 15 14 14 15 13 11 12 9 9 7 7 8 10 8 8 8 14 16 16 16 16 17 14 8 9 8 8 7 7 7 8 7 7 8 8 8 15 14 13 15 15 21 28 29 28 30 31 29 30 31 24 19 18 19 21 18 20 17 22 16 20 16 22 17 19 18 18 19 22 22
12 12 12 12 13 13 13 14 14 14 13 13 13 14 15 15 13 11 11 11 13 11 10 12 9 9 9 9 9 8 8 13 16 16 16 16 16 13 6 7 6 7 8 8 7 5 6 8 9 9 9 10 11 13 14 15 16 15 15 16 16 21 28 31 32 35 29 22 22 22 25 19 23 20 21 19 21 19 18 17 17 19 19 23 23
11 12 13 13 12 13 14 14 14 13 13 13 14 14 14 13 14 13 13 14 14 13 12 12 9 9 9 8 8 7 6 13 15 15 15 15 15 12 5 6 6 6 6 5 6 8 8 8 9 10 10 11 10 14 14 13 13 12 12 12 12 12 13 15 16 16 18 22 21 25 24 23 21 23 22 17 18 19 17 20 20 17 18 20 20
12 11 12 13 14 14 15 14 14 14 15 15 16 16 15 15 16 13 12 10 9 8 8 8 11 11 10 9 9 6 6 14 14 14 14 14 15 7 5 5 5 4 3 6 7 7 8 9 10 10 11 11 15 22 19 15 14 15 16 16 16 17 17 18 24 25 23 20 19 21 21 23 28 24 24 19 18 17 16 17 18 16 15 16 19
13 14 14 14 14 14 15 15 15 15 16 17 17 16 16 14 13 12 13 13 13 12 12 12 10 10 10 11 9 6 6 12 15 14 14 14 11 4 5 3 4 5 7 7 7 8 8 10 10 10 10 10 15 21 22 22 14 15 17 19 17 15 14 12 21 28 28 30 32 34 35 36 36 38 38 41 31 23 16 15 17 11 14 16 18
14 14 15 14 15 14 14 15 16 16 16 18 17 15 13 12 13 12 14 14 13 13 11 10 9 10 10 10 8 8 7 10 15 13 13 13 10 5 4 5 5 5 5 7 6 7 10 16 13 10 11 11 17 20 22 19 14 15 15 14 13 14 14 14 13 15 25 31 34 35 36 35 36 36 37 36 36 29 18 19 16 10 15 15 20
13 15 15 13 14 14 14 15 16 17 17 16 15 16 16 15 12 10 9 10 11 10 9 10 9 8 5 7 14 9 6 9 14 14 14 14 11 6 6 4 5 6 4 5 7 7 8 8 12 13 12 14 20 20 21 19 14 12 13 15 14 14 13 15 15 17 15 13 14 16 17 22 20 20 23 36 37 32 20 19 15 12 16 15 16
15 10 10 12 12 12 13 15 15 16 16 14 13 13 11 11 12 12 9 8 8 8 9 9 10 8 7 6 8 9 8 6 10 15 14 14 14 7 5 6 5 5 6 5 6 6 6 7 8 13 16 17 19 20 21 23 16 13 13 11 12 16 14 15 16 16 18 16 16 17 18 17 16 17 18 20 20 19 22 18 17 15 17 16 16
7 9 9 10 11 12 11 13 15 13 12 13 12 11 11 12 12 11 11 9 8 8 9 8 8 8 5 6 5 6 7 7 9 15 14 14 14 11 5 5 5 6 6 6 5 3 4 6 6 11 16 17 18 21 22 22 21 14 10 11 12 17 22 15 17 22 16 17 16 15 13 13 15 15 15 16 14 14 16 19 17 16 15 15 15
8 8 10 10 10 10 11 10 10 11 10 11 12 11 8 9 11 11 9 10 11 10 9 9 8 6 6 6 6 5 8 11 6 12 13 13 12 12 7 6 7 6 6 4 3 4 7 7 6 11 16 17 19 21 22 21 22 13 12 20 25 26 19 13 13 13 13 12 13 12 13 15 16 15 15 15 16 16 14 13 15 16 15 15 16
9 9 10 11 11 11 10 12 12 10 11 11 13 12 10 10 10 10 11 11 12 12 10 8 8 8 7 6 6 7 7 9 12 8 12 12 12 12 11 9 9 4 2 2 4 4 4 5 8 16 16 18 19 19 19 21 17 13 21 23 23 26 20 10 12 12 12 11 12 12 11 12 14 15 14 15 14 15 16 16 16 16 16 17 19
11 11 10 11 11 11 11 12 11 10 12 12 12 13 12 12 11 11 11 12 12 11 8 8 8 9 9 8 7 7 7 6 10 13 10 12 11 11 10 8 8 3 3 3 3 3 6 8 9 15 16 17 17 17 18 17 13 20 21 22 22 20 11 11 9 11 12 13 13 12 12 14 15 14 13 15 16 16 17 16 17 18 17 16 18
12 12 12 12 12 11 11 11 11 11 12 13 14 13 13 14 13 11 12 10 9 8 10 9 9 9 9 9 8 8 7 6 5 10 13 11 12 10 8 7 6 7 2 0 2 3 9 13 14 15 15 15 16 16 14 15 19 19 21 22 20 9 10 10 11 11 11 12 12 12 13 15 15 17 17 18 18 16 15 15 13 14 16 18 18
12 13 12 11 12 12 13 11 11 12 12 11 12 12 14 14 13 12 10 8 7 8 10 9 7 8 8 8 8 8 6 6 6 6 8 9 9 9 7 6 5 5 6 3 8 11 9 10 12 12 10 11 9 7 6 9 17 20 20 19 10 9 8 10 10 11 11 11 12 13 14 15 16 16 18 18 16 14 14 14 13 13 11 15 16
12 12 13 12 12 13 15 12 11 11 12 10 10 10 11 12 13 13 13 10 9 8 8 10 10 9 8 9 8 8 7 7 6 6 5 5 3 4 4 3 4 5 0 3 4 2 4 5 5 8 8 12 13 13 12 13 10 10 8 8 8 8 9 8 10 11 12 12 11 12 13 15 15 15 14 14 14 13 15 15 15 14 15 14 17
14 14 15 13 12 13 13 15 16 12 13 13 13 12 12 12 15 17 17 15 16 14 10 10 11 13 12 11 10 8 7 7 7 7 7 6 5 5 4 4 4 4 1 3 3 0 1 5 6 4 5 5 5 4 4 4 7 8 8 8 8 9 12 17 16 11 10 11 12 13 13 14 13 13 14 13 14 13 13 14 14 17 15 16 17
11 13 13 12 13 13 13 14 14 13 13 12 11 12 13 14 13 9 9 11 14 17 15 13 13 12 12 13 13 10 8 9 8 9 8 11 8 6 5 4 4 3 5 4 5 2 2 2 3 4 4 5 5 5 6 6 7 7 9 9 8 8 8 7 9 11 11 11 12 13 14 13 13 12 13 13 12 13 12 13 13 14 16 14 17
11 12 12 13 13 14 14 14 15 15 15 14 13 10 11 16 11 11 11 12 10 10 14 14 14 13 12 9 10 12 12 9 14 18 15 13 12 11 10 8 7 7 4 5 6 1 1 1 3 3 5 5 6 6 7 7 8 9 8 10 10 9 9 9 9 10 11 12 12 13 14 14 14 13 12 13 13 11 12 15 15 13 16 15 16
11 10 11 12 15 16 15 15 15 15 15 15 14 14 12 13 19 14 11 15 16 17 14 15 21 18 14 12 10 13 15 17 16 15 14 12 10 10 9 8 7 6 5 6 3 1 0 2 3 3 3 4 4 6 7 7 8 9 9 9 8 10 11 9 10 11 12 12 13 12 13 14 13 12 12 13 14 14 12 10 11 12 12 15 15
13 13 13 11 11 11 11 12 12 12 11 11 13 13 14 14 11 14 17 17 19 19 19 22 22 21 20 17 14 11 15 15 15 15 13 12 11 11 10 9 8 8 6 6 3 0 0 1 3 4 4 5 5 6 7 7 8 8 9 10 10 9 10 11 12 12 12 12 13 14 13 12 13 14 14 14 14 14 12 12 10 13 14 14 15
12 10 10 10 11 12 11 12 13 13 15 15 13 13 14 15 15 13 14 19 20 20 21 22 23 22 22 20 19 14 13 14 16 15 14 12 12 11 11 10 9 9 10 4 4 1 1 2 2 4 4 5 6 7 7 7 8 8 8 9 11 11 11 12 14 12 12 13 14 14 14 14 14 14 14 14 13 12 13 13 12 11 12 14 15
14 12 13 14 14 13 12 12 13 14 13 14 14 14 14 14 15 16 15 13 14 16 19 21 22 22 21 21 18 17 17 17 17 15 14 13 13 13 11 8 11 10 8 3 1 0 1 2 2 3 4 5 6 7 7 7 7 8 9 9 9 10 12 13 12 12 12 13 12 14 14 14 12 13 14 13 12 13 12 13 12 12 13 13 16
12 12 16 14 13 14 13 13 13 13 13 14 14 13 13 13 15 17 18 17 17 16 12 13 17 20 16 16 18 19 18 18 17 15 14 13 14 14 12 6 5 4 3 1 0 1 1 1 3 4 4 6 7 7 8 8 8 8 9 10 10 10 11 11 12 12 13 12 12 12 14 15 14 13 14 14 14 14 13 12 13 14 14 14 13
13 11 12 15 13 12 13 13 14 14 15 14 13 13 12 13 14 14 13 14 15 14 11 9 10 16 22 18 20 19 18 17 15 15 13 13 13 12 6 5 5 2 0 0 1 2 1 1 1 4 5 6 7 7 7 8 8 8 9 9 11 11 11 12 13 13 14 13 14 16 16 14 13 14 13 13 14 15 13 14 14 14 15 14 12
12 12 12 13 13 12 12 12 12 13 12 12 12 12 12 12 11 12 12 13 12 11 13 14 12 11 9 4 15 18 18 16 15 14 13 11 10 7 6 6 6 2 1 1 1 1 1 2 2 4 5 6 7 7 7 8 8 8 9 10 10 11 11 11 14 14 14 13 13 14 14 13 13 13 12 15 15 14 13 14 13 15 15 17 18
15 14 13 13 13 12 12 12 12 14 13 12 12 12 13 13 13 12 12 12 13 14 13 11 11 13 13 7 8 7 12 16 17 13 10 9 8 5 5 5 3 2 1 2 1 1 2 3 3 5 6 6 7 7 7 8 8 8 9 10 10 10 18 17 17 14 13 13 13 14 13 13 12 13 14 16 15 16 15 14 13 14 15 16 15
10 14 14 16 14 12 12 12 13 14 13 13 12 12 13 13 13 12 13 13 13 12 11 12 11 11 9 8 8 10 12 6 6 5 4 4 4 4 5 4 2 1 2 1 1 1 2 4 6 5 6 6 7 7 7 8 8 9 9 10 10 10 12 11 13 13 12 13 13 15 13 12 12 13 14 15 15 15 15 15 13 14 16 16 13
10 10 12 20 12 13 12 13 13 14 13 14 13 12 12 12 13 14 14 14 13 12 12 12 11 9 8 8 8 7 8 7 6 6 5 5 4 3 4 3 1 3 2 1 1 1 3 4 5 6 6 6 6 7 7 8 8 9 9 9 10 11 12 12 13 13 14 14 14 14 13 13 14 14 14 13 13 13 15 16 15 17 16 15 15
10 10 11 16 14 13 12 13 12 13 13 13 12 12 12 12 12 12 13 13 13 12 11 10 9 8 7 9 14 11 8 8 7 6 6 5 4 3 2 2 3 2 1 1 1 2 4 5 5 6 6 6 7 7 7 7 8 8 9 10 10 11 12 12 13 13 15 15 15 14 12 14 14 14 16 15 19 18 14 14 15 15 15 15 17
10 10 11 11 14 13 13 12 11 13 12 12 13 13 12 12 12 12 13 13 12 12 12 10 8 8 11 20 17 15 9 6 6 6 5 3 3 2 2 3 3 3 2 2 3 3 5 5 5 5 6 7 6 6 6 7 8 8 9 9 10 11 12 13 13 14 15 14 15 14 13 14 16 17 17 18 14 14 15 14 15 16 15 15 14
11 11 11 11 12 13 13 12 12 13 13 13 12 11 12 13 12 12 12 11 12 12 12 11 9 8 7 16 16 15 8 7 5 6 5 4 3 2 3 4 3 3 2 3 4 4 5 5 6 6 7 7 7 6 7 8 8 8 9 9 11 12 13 13 14 14 14 14 14 14 15 14 15 14 15 15 15 15 15 17 17 16 16 16 15
10 10 10 11 11 11 10 12 13 12 12 12 13 12 11 11 11 12 12 12 12 11 11 10 9 9 8 10 11 8 7 6 6 5 5 3 2 2 3 3 2 2 3 4 5 4 4 5 6 7 7 7 7 6 7 7 7 8 9 9 10 11 13 13 14 15 15 15 15 13 14 15 16 16 15 16 16 17 17 17 17 17 17 18 18
10 11 11 11 11 11 11 10 11 11 11 11 11 11 10 11 12 12 12 12 11 11 10 10 9 9 9 8 8 8 7 6 6 5 4 4 3 2 2 2 3 3 3 4 4 3 4 6 7 6 7 7 7 7 7 8 7 7 8 9 10 11 12 14 14 15 16 16 14 13 14 15 16 16 16 16 16 17 17 18 17 18 18 18 19
10 11 11 11 11 10 11 10 9 11 12 11 14 15 10 10 12 12 11 11 11 11 10 9 8 8 8 7 7 7 6 6 5 4 5 3 2 1 2 3 4 4 4 4 4 4 6 6 6 5 6 7 8 8 8 8 8 8 9 9 10 11 12 13 14 15 16 15 13 13 15 15 16 15 17 17 16 16 17 18 17 17 18 18 18
10 10 11 11 12 11 10 11 10 10 11 11 12 12 15 15 13 11 11 12 11 10 10 9 9 9 8 7 7 7 7 6 6 5 4 2 1 1 2 4 4 5 4 5 4 6 6 5 4 4 6 7 8 9 9 8 8 9 9 9 10 12 11 12 14 15 14 14 13 13 14 15 16 17 18 18 17 17 18 17 18 19 18 16 16
9 9 10 10 11 11 11 11 12 11 11 11 11 10 11 11 11 11 11 11 11 10 9 9 8 7 7 7 6 6 6 6 4 5 2 1 0 1 2 3 5 5 4 5 5 5 5 4 5 5 6 7 7 8 8 9 9 9 9 9 10 12 17 22 16 15 14 14 13 13 14 15 15 16 17 18 18 18 19 18 18 17 17 16 16
9 9 9 10 10 11 11 11 10 11 11 9 12 13 11 11 11 10 9 8 7 8 8 11 10 7 7 6 6 6 5 5 4 2 1 0 1 2 3 4 5 5 4 6 6 4 5 5 5 5 6 7 7 8 8 9 10 10 10 10 14 24 26 26 18 15 19 15 13 13 13 14 16 17 18 18 18 18 18 18 18 18 18 17 18
9 10 10 10 9 9 8 8 11 10 8 9 9 10 11 11 10 9 8 7 8 7 6 7 8 7 7 7 6 6 5 4 3 1 0 0 1 3 4 5 4 4 5 5 5 5 4 4 5 6 6 7 7 7 8 9 10 11 10 13 22 27 25 25 23 22 19 14 14 12 13 14 15 15 16 17 18 19 19 19 19 17 17 18 18
9 9 9 9 9 9 8 8 7 7 7 9 11 10 11 10 7 9 8 8 7 7 6 5 6 6 6 5 5 5 5 3 2 1 0 1 3 3 4 5 5 4 4 4 5 5 5 5 5 6 6 6 7 7 8 9 9 11 16 24 27 26 26 25 19 22 27 21 13 12 12 14 16 17 17 16 17 18 20 20 19 18 17 17 17
Wind_Direction
199 208 200 204 202 203 203 197 198 192 185 188 187 188 185 181 176 165 152 167 157 159 160 160 158 155 154 157 158 160 155 152 148 143 148 152 152 163 178 191 221 241 240 262 265 280 280 279 297 347 28 3 348 339 327 316 314 301 299 294 285 284 279 274 275 283 289 291 297 304 314 312 298 301 300 300 304 302 296 288 289 290 290 286 293
202 204 198 200 202 203 198 195 191 188 191 190 191 185 183 183 172 161 168 164 163 160 160 158 156 154 154 156 156 156 155 150 148 148 155 157 164 160 177 196 217 234 243 260 278 284 283 293 310 348 9 343 327 314 305 300 293 290 280 281 279 279 274 274 275 280 287 300 301 302 298 308 295 308 305 307 303 306 298 299 291 285 277 277 271
203 197 195 198 202 196 186 189 183 184 189 193 195 187 182 178 174 170 165 161 164 162 160 157 156 153 152 154 153 156 155 152 151 151 158 160 165 171 173 186 204 218 237 243 255 272 279 290 303 343 346 324 309 300 298 284 283 277 277 274 275 274 271 267 275 278 284 289 298 302 302 304 286 305 313 305 297 297 291 288 289 281 274 284 286
194 192 195 198 192 185 190 185 178 183 189 188 189 183 174 175 178 176 165 159 161 161 158 156 153 154 152 154 156 154 154 152 154 158 160 159 166 174 174 176 178 180 192 210 231 243 265 291 293 331 318 295 288 286 286 283 277 275 270 266 264 264 262 261 258 271 280 285 291 293 299 304 302 298 297 289 289 291 284 278 274 278 275 269 272
188 193 193 192 188 190 189 183 185 185 188 182 184 172 171 168 177 178 166 164 159 154 158 157 154 155 158 159 157 157 157 155 155 156 156 159 167 157 159 170 184 191 202 209 240 231 256 267 279 276 267 265 268 263 258 261 260 260 264 262 256 251 250 248 248 248 259 267 279 283 287 291 293 297 301 299 292 281 273 269 268 269 275 273 270
194 189 192 190 193 192 191 188 190 189 186 184 178 171 167 171 172 175 174 165 158 160 158 163 163 160 156 156 155 154 153 154 159 161 160 159 160 148 150 171 183 191 205 213 212 228 242 248 250 242 239 248 256 254 252 256 259 258 255 254 255 257 256 256 254 252 256 261 271 284 284 291 293 286 296 290 293 297 295 286 277 270 280 284 272
191 191 192 195 191 194 192 195 190 187 186 180 169 168 170 169 170 173 174 167 163 161 163 159 161 154 153 151 155 154 152 153 155 156 156 157 150 156 161 171 186 189 208 219 228 228 233 238 242 241 243 245 251 253 257 256 256 251 244 250 249 250 258 255 251 252 252 259 268 266 280 278 281 285 292 285 284 282 288 297 292 273 251 269 282
190 193 191 194 196 196 196 189 187 185 177 168 169 170 167 169 172 168 165 170 169 165 162 159 154 150 151 150 147 144 145 146 149 153 150 145 151 160 169 179 194 203 208 221 227 233 231 235 239 240 245 243 245 249 246 251 242 243 245 251 250 248 249 247 246 247 252 258 259 270 267 274 273 274 280 279 285 285 269 277 286 294 290 268 259
189 191 191 196 200 194 183 182 179 174 171 168 170 171 170 168 164 164 166 165 164 160 153 149 146 141 140 141 140 142 148 157 158 158 159 161 160 172 176 179 196 205 215 222 229 233 237 243 247 251 250 256 261 264 262 257 248 244 244 243 250 252 248 244 245 246 253 254 261 261 265 269 265 270 279 279 271 284 288 282 280 278 286 283 271
188 189 193 198 190 180 180 177 176 171 171 174 173 167 164 162 160 160 162 159 155 153 148 148 148 147 144 141 142 150 160 160 177 179 177 167 165 165 171 182 197 207 214 228 235 235 238 241 244 251 262 267 269 270 272 274 273 272 266 244 245 238 237 245 248 244 245 252 248 257 260 262 264 264 261 265 275 275 277 279 279 286 286 281 280
189 189 196 188 177 173 174 178 170 176 175 168 166 164 162 158 158 158 157 158 158 157 153 152 154 149 150 154 157 160 166 174 184 189 188 184 175 175 176 187 195 211 221 223 227 238 242 241 247 255 264 270 273 274 276 277 276 275 275 277 277 276 277 272 265 256 235 242 250 252 253 260 264 262 263 269 270 274 273 277 276 280 281 285 287
189 192 188 174 175 175 176 170 172 174 169 171 166 163 157 157 161 162 160 161 163 161 163 158 145 146 146 149 158 165 166 183 187 190 193 193 180 172 176 184 198 206 214 224 231 234 246 260 262 263 262 262 262 264 266 270 273 276 277 277 276 276 274 274 279 279 273 274 271 264 264 257 278 273 272 277 278 276 274 267 273 271 275 276 276
187 185 179 176 177 174 171 172 173 172 175 168 164 162 163 164 166 166 171 168 160 158 143 137 146 143 151 159 164 170 171 187 187 189 192 197 195 181 181 188 194 204 216 220 233 245 249 254 261 263 264 269 275 270 267 267 268 271 271 274 276 273 276 278 276 275 279 277 277 278 273 279 275 276 275 279 279 278 278 275 274 275 276 278 276
183 182 175 178 176 174 171 172 174 174 168 165 164 166 168 173 169 164 155 155 157 157 160 151 158 161 166 165 162 169 168 186 186 189 191 195 199 201 171 183 193 210 224 236 229 235 261 265 264 267 265 261 259 262 265 265 268 266 266 265 264 264 264 263 269 272 274 274 275 275 278 272 275 275 273 272 272 272 273 272 271 272 271 269 275
179 177 178 178 173 174 173 172 171 168 166 164 165 168 171 165 165 166 163 166 167 169 165 166 168 163 165 166 163 167 171 184 186 190 192 196 201 203 178 191 201 200 202 224 260 262 256 255 262 260 260 260 257 266 273 272 270 270 271 270 266 263 262 260 251 245 252 260 258 261 265 267 266 269 268 261 251 256 256 260 260 258 267 272 272
178 173 178 180 179 176 172 172 169 167 166 167 169 172 173 170 168 166 162 162 162 157 166 165 164 168 168 164 160 153 165 183 186 188 193 196 198 199 184 186 179 200 232 238 235 244 249 251 253 256 257 260 268 277 285 290 293 291 288 282 276 272 269 270 276 278 277 271 264 263 265 266 266 268 265 263 258 256 257 257 259 257 260 263 263
181 182 183 180 178 175 174 171 170 169 170 171 175 174 171 170 169 166 165 168 167 171 170 171 169 164 152 158 146 140 159 182 184 187 192 196 199 172 172 175 217 222 221 226 240 242 246 246 248 256 264 267 283 292 294 296 294 291 284 279 276 277 283 286 289 289 288 287 288 288 287 287 286 284 283 282 281 278 269 260 253 243 252 257 261
184 182 184 180 177 174 174 172 171 172 173 178 176 173 168 166 170 173 172 170 174 174 165 160 162 165 157 160 157 149 154 181 181 184 190 196 193 167 188 192 202 221 238 240 239 236 240 257 269 272 283 288 291 294 296 298 289 282 281 288 292 291 289 297 300 295 289 287 285 285 284 284 285 285 284 284 283 281 278 271 270 272 265 262 270
183 188 186 175 173 173 172 173 174 174 178 178 173 170 172 171 165 166 176 173 171 164 161 157 153 158 143 144 165 156 147 173 180 182 187 192 194 168 179 176 208 230 232 241 242 247 246 259 280 286 287 289 294 297 298 297 293 299 305 300 293 295 300 301 293 286 285 290 291 300 299 299 297 295 290 287 283 280 273 272 279 267 267 268 267
192 173 162 168 170 170 173 174 175 176 177 170 172 172 163 159 166 165 167 167 162 158 156 153 150 154 151 155 175 167 164 168 183 183 188 193 193 175 175 188 208 222 237 236 249 244 268 286 291 291 290 292 294 297 299 305 306 305 302 300 303 299 296 288 291 303 310 311 306 302 296 294 288 282 278 277 273 265 269 262 258 258 259 261 261
146 164 159 162 169 172 170 174 173 175 173 169 163 161 167 167 162 164 158 155 152 150 147 142 137 142 142 156 171 165 166 163 177 181 186 187 194 192 164 189 203 223 225 241 239 253 286 287 291 286 288 292 295 302 308 309 307 306 309 303 293 291 302 308 315 319 312 305 300 296 293 295 298 296 292 289 278 266 259 259 250 248 249 255 259
140 147 162 165 164 166 168 165 164 164 161 157 161 163 162 160 162 157 153 149 151 147 145 144 140 135 136 159 173 177 178 174 172 183 185 189 191 197 179 200 215 214 232 212 255 286 284 288 282 282 287 293 304 310 310 309 309 313 300 295 299 307 310 315 320 311 300 297 297 294 300 302 302 299 294 293 297 294 283 267 255 249 245 244 248
152 153 156 161 163 162 161 161 161 160 162 164 160 160 157 157 157 155 151 150 151 150 147 139 137 143 153 172 175 181 184 179 177 182 184 186 192 202 204 210 229 214 196 237 261 257 289 269 271 278 286 304 310 309 309 311 314 301 300 305 310 311 317 317 302 299 296 297 298 296 296 297 300 301 294 295 293 293 296 297 297 286 270 259 251
154 156 159 161 158 160 161 159 159 160 161 159 161 158 162 161 158 161 161 158 156 153 149 147 149 153 162 169 176 180 177 170 180 176 182 189 197 201 211 219 228 202 197 208 215 266 284 274 264 279 306 310 308 309 311 312 307 305 308 313 316 321 315 304 299 298 300 301 302 299 298 302 302 298 299 300 298 299 295 291 288 288 289 288 277
156 163 162 161 161 157 153 158 159 161 164 163 163 165 164 163 163 169 166 169 159 144 156 159 157 159 160 167 169 171 165 156 171 180 184 192 197 202 207 214 228 245 252 149 259 245 266 276 297 310 308 309 312 314 313 309 308 310 314 318 322 314 306 299 299 300 300 304 303 300 298 300 300 298 300 301 299 295 289 286 281 278 279 276 275
165 164 162 160 159 154 152 152 156 162 165 170 171 171 168 170 166 165 170 162 157 151 150 154 147 156 161 160 163 156 152 160 170 185 188 193 195 196 199 209 230 254 255 257 269 280 299 311 311 313 315 313 314 306 297 303 311 314 316 317 309 301 295 298 299 302 303 304 302 300 300 301 298 299 298 298 297 293 292 289 290 285 285 285 285
166 164 164 162 156 160 160 161 159 163 168 168 169 172 176 174 168 168 169 165 166 154 150 155 155 162 162 160 148 153 160 171 178 182 179 182 190 197 197 193 240 245 221 289 287 32 333 327 313 310 317 312 311 311 309 309 307 303 299 298 296 295 293 292 302 306 304 301 298 295 298 297 294 293 294 295 292 288 292 291 294 294 296 294 291
173 175 170 165 164 165 166 162 162 167 174 171 171 177 187 184 177 177 174 173 168 172 162 159 164 164 162 155 151 152 170 176 188 183 186 178 188 193 174 189 187 113 166 252 126 158 359 327 324 311 299 301 297 283 281 286 295 300 298 296 293 289 297 304 304 293 289 292 292 296 294 296 292 290 291 292 290 287 292 293 295 293 293 294 290
177 171 168 164 167 170 167 169 172 171 173 175 181 183 182 186 185 176 179 173 172 166 170 176 173 168 155 153 152 157 167 185 193 190 191 183 182 178 178 150 132 166 226 185 116 61 27 332 303 321 315 301 308 311 314 312 305 298 297 298 298 301 299 294 300 301 300 300 301 302 300 295 289 286 289 289 288 295 294 289 289 289 292 284 282
180 180 178 177 171 170 172 173 176 174 173 174 170 174 195 190 184 176 171 183 191 193 176 172 169 159 150 150 156 159 167 174 183 182 187 181 171 166 158 169 182 169 190 90 88 91 298 331 309 310 301 312 317 317 317 313 308 308 299 309 308 302 300 300 298 297 300 301 300 302 301 297 290 291 289 288 289 283 290 298 294 291 291 289 284
190 187 184 189 184 181 179 176 176 177 176 171 171 169 163 180 190 189 183 178 178 171 169 158 151 148 141 141 154 155 157 168 175 180 169 161 163 156 153 160 160 148 105 96 61 117 256 341 307 296 289 305 304 304 308 306 304 304 307 307 302 303 306 302 301 301 303 302 301 299 298 295 289 290 296 298 298 298 293 283 280 280 277 285 285
193 196 193 190 177 180 179 174 169 168 171 173 172 167 165 158 171 180 175 172 166 161 156 153 148 143 141 141 147 154 161 167 163 158 158 157 152 153 152 149 141 118 97 105 101 18 118 276 285 291 319 319 304 302 301 298 298 304 306 308 306 304 306 306 307 308 304 302 302 302 301 293 294 298 298 296 295 294 290 293 289 293 291 286 282
200 194 186 180 180 181 175 174 175 172 172 173 176 175 169 165 158 154 164 162 156 152 151 149 147 145 145 149 154 159 162 161 157 155 154 151 146 146 145 135 128 106 93 73 112 48 288 264 285 308 311 299 301 301 296 297 298 300 299 299 305 308 307 303 307 303 299 300 302 303 301 294 294 297 300 299 295 293 297 295 293 284 286 286 286
199 187 183 183 178 181 181 179 177 180 179 177 178 175 172 165 157 153 150 151 150 149 150 148 146 145 149 154 160 162 160 156 153 152 150 145 142 140 130 118 103 83 94 121 132 177 277 302 297 293 300 299 297 294 291 295 298 297 298 298 298 301 303 306 307 304 301 301 303 302 299 295 294 302 303 299 292 292 290 293 293 293 293 291 290
199 196 190 182 183 183 179 179 180 177 177 178 179 174 169 166 159 157 156 155 150 147 151 150 151 149 151 156 161 161 158 155 153 151 146 141 133 126 110 92 83 30 34 47 122 273 263 289 312 310 314 296 290 287 291 296 297 301 302 305 305 303 305 306 304 303 302 304 302 300 300 295 300 301 302 301 303 301 299 297 297 294 292 290 285
198 191 186 186 183 184 182 182 179 179 177 178 175 170 164 161 161 158 153 148 146 144 140 138 141 152 154 158 159 156 152 151 151 145 137 133 138 131 105 125 111 144 153 260 216 246 238 266 308 301 288 280 279 284 290 296 298 300 302 305 308 306 305 306 304 305 309 307 304 302 299 295 298 304 303 295 295 297 294 294 295 294 288 284 283
198 193 188 188 186 180 179 177 179 177 172 169 166 165 164 161 157 152 148 144 140 137 134 129 125 119 109 115 155 152 148 146 143 132 114 104 99 90 112 134 140 145 178 231 241 261 353 326 294 282 279 276 282 286 295 297 299 299 303 304 299 303 302 300 308 311 307 304 300 296 292 296 304 307 306 306 303 300 295 296 290 292 293 287 290
199 193 191 183 178 175 170 174 172 165 167 167 168 164 162 160 157 151 143 140 140 137 137 130 127 131 133 129 104 123 137 120 99 83 81 80 70 86 102 120 131 146 197 246 254 353 321 299 286 274 281 282 287 297 297 300 301 305 305 303 303 295 308 310 308 302 297 298 297 298 295 299 305 310 312 309 305 304 300 298 295 297 295 289 288
202 198 181 171 170 171 169 165 164 166 168 168 168 164 162 156 151 145 142 141 139 136 131 133 135 138 132 131 117 113 104 95 108 126 106 100 97 106 120 119 125 187 231 233 288 344 306 288 286 279 278 283 290 293 297 298 304 305 304 303 303 304 308 308 308 307 303 303 301 302 300 305 310 312 311 308 304 302 297 298 296 298 299 295 281
188 185 169 164 166 167 165 168 166 166 167 164 164 160 156 154 151 144 143 142 143 142 141 139 140 138 138 128 123 119 126 133 143 149 140 138 134 127 123 123 165 213 223 262 252 264 274 277 272 279 283 287 287 289 289 297 301 301 302 302 305 307 309 307 307 307 306 305 302 302 305 311 315 313 310 305 301 303 307 305 304 302 298 292 288
182 173 168 171 162 162 161 165 167 167 163 160 156 154 156 150 144 144 144 144 139 137 134 132 130 133 135 141 145 140 135 143 145 144 151 152 157 135 118 185 210 224 220 206 247 247 252 262 275 275 282 280 280 282 290 297 299 300 302 304 304 305 306 305 305 304 304 305 302 301 306 315 317 318 317 314 316 311 298 298 302 303 301 296 294
166 162 163 163 157 158 160 161 159 154 152 150 153 155 153 150 148 147 146 141 138 135 131 126 131 137 151 151 155 138 118 125 126 135 145 152 147 133 194 224 227 226 225 239 247 263 265 266 272 276 278 281 282 288 296 297 300 302 302 301 305 305 306 307 306 303 304 304 303 305 311 317 320 320 315 314 307 306 308 308 306 306 304 301 296
158 157 160 155 158 158 157 153 148 151 153 156 155 151 150 147 146 142 135 132 131 131 128 128 132 118 159 159 136 121 107 125 132 140 149 150 143 184 214 225 230 228 232 250 250 247 257 268 278 275 274 277 283 287 290 291 293 297 299 301 304 304 305 304 307 307 305 303 304 311 316 319 320 317 315 314 310 310 309 312 312 310 308 306 307
148 146 147 149 149 147 149 148 150 153 155 150 143 143 143 139 134 130 128 125 126 124 126 129 131 106 69 104 104 108 121 127 140 145 147 136 178 209 229 240 248 259 255 250 255 246 251 264 269 275 272 276 279 282 280 278 282 284 295 298 300 297 300 304 307 308 308 307 312 317 322 322 321 318 316 316 316 315 316 316 315 313 310 312 308
141 142 142 142 143 142 144 144 142 137 132 134 135 130 134 133 129 123 124 124 122 123 125 128 121 114 108 113 120 125 132 138 142 141 155 173 191 220 234 256 255 254 254 255 249 248 250 254 259 272 287 292 291 290 287 286 282 282 284 292 295 297 300 303 303 303 304 310 313 320 324 325 322 321 318 316 317 318 318 319 318 316 316 317 317
140 139 138 137 137 138 136 134 133 136 138 139 136 132 127 119 117 120 120 120 122 126 128 125 121 121 123 127 127 127 135 140 152 162 172 182 187 228 247 249 257 254 252 254 259 251 249 246 258 272 283 290 297 295 294 290 292 288 288 282 287 287 292 295 299 304 308 314 318 323 325 324 322 320 318 318 319 318 319 317 317 319 318 313 311
132 132 131 134 135 135 133 133 132 132 128 129 124 124 114 108 111 112 112 113 122 126 127 128 129 133 133 134 137 138 146 150 161 163 174 180 192 231 264 267 268 271 273 268 263 257 258 262 266 270 279 286 287 290 291 292 294 293 290 289 286 292 294 302 305 305 310 317 321 326 326 327 323 326 322 323 322 322 322 321 322 319 315 306 307
121 122 126 126 127 128 131 132 130 129 128 125 127 122 118 115 113 114 119 121 122 125 125 124 126 130 128 130 131 142 149 158 157 158 145 144 186 243 257 262 265 265 275 277 267 262 266 277 283 285 285 286 289 293 295 297 295 293 292 291 293 294 300 303 306 311 319 322 325 326 327 325 325 325 325 325 325 326 325 326 325 323 321 319 314
111 112 115 120 125 128 131 130 131 127 131 136 124 116 113 110 113 116 116 111 115 120 129 124 111 128 127 133 140 146 156 146 133 111 111 123 234 260 253 255 259 264 261 268 270 276 282 286 284 283 279 282 283 288 294 296 297 293 295 292 296 299 304 307 315 321 326 327 330 328 326 325 326 327 326 327 326 326 325 324 325 325 325 323 321
98 106 110 110 110 111 111 111 118 122 123 116 91 105 111 111 112 113 104 106 109 109 108 125 131 134 136 140 147 154 150 134 125 116 111 256 257 263 263 266 265 264 264 270 282 289 294 290 290 284 284 284 289 291 292 293 291 293 290 297 300 304 312 321 326 329 335 339 333 329 327 325 328 329 329 329 328 328 328 329 328 328 326 326 324
93 95 96 99 103 103 95 101 106 106 96 101 102 97 112 111 97 116 115 116 113 120 123 117 121 128 131 138 145 144 138 125 123 123 178 256 255 262 265 268 276 285 287 285 292 296 297 294 291 288 291 293 300 297 296 292 292 291 290 294 305 316 323 332 336 339 341 342 335 330 329 331 331 333 333 333 332 332 328 327 330 331 331 328 326